Home > Weather > Izmir > Past weeks

Flag for Turkey Past Weather in Izmir, Turkey — Yesterday and Last 2 Weeks

Now
90 °F

Sunny.


Feels Like: 86 °F
Forecast: 72 / 101 °F
Wind: 18 mph from North

Location: Izmir / Adnan Menderes

Current Time: Jul 24, 2016 at 9:36:16 PM

Latest Report: Jul 24, 2016 at 8:50 PM


Visibility: 10 mi

Pressure: 29.71 "Hg

Humidity: 24%

Dew Point: 48 °F

Location of IzmirLocation

Past Weather in Izmir — Graph

°F

Izmir Temperature Yesterday

Maximum temperature yesterday: 97 °F (at 3:20 PM)
Minimum temperature yesterday: 72 °F (at 5:50 AM)
Average temperature yesterday: 85 °F

High & Low Weather Summary for the Past Weeks

 TemperatureHumidityPressure
High100 °F (Jul 15, 2:50 PM)88% (Jul 13, 6:20 AM)29.92 "Hg (Jul 13, 6:20 AM)
Low66 °F (Jul 13, 5:20 AM)13% (Jul 15, 4:50 PM)29.62 "Hg (Jul 19, 5:20 PM)
Average84 °F41%29.78 "Hg
* Reported Jul 9 7:20 PM — Jul 24 7:50 PM, Izmir, Weather by CustomWeather, © 2016

Note: Actual official high and low records may vary slightly from our data, if they occured in-between our weather recording intervals... More about our weather records

Advertising

Izmir Weather History for the Previous 24 Hours

Scroll right to see more
 ConditionsComfort  
Time TempWeatherWind HumidityBarometerVisibility
7:50 PM
Sun, Jul 24
93 °FSunny.22 mph21%29.71 "Hg10 mi
7:20 PM95 °FSunny.22 mph20%29.71 "Hg10 mi
6:50 PM97 °FSunny.20 mph18%29.71 "Hg10 mi
6:20 PM99 °FSunny.18 mph16%29.71 "Hg10 mi
5:50 PM99 °FSunny.20 mph15%29.71 "Hg10 mi
5:20 PM99 °FPassing clouds.17 mph15%29.71 "HgN/A
4:50 PM99 °FPassing clouds.18 mph16%29.71 "HgN/A
4:20 PM100 °FPassing clouds.20 mph14%29.71 "HgN/A
3:50 PM99 °FPassing clouds.16 mph14%29.71 "HgN/A
3:20 PM99 °FPassing clouds.17 mph15%29.74 "HgN/A
2:50 PM99 °FSunny.20 mph13%29.74 "Hg10 mi
2:20 PM97 °FSunny.20 mph13%29.74 "Hg10 mi
1:50 PM97 °FSunny.21 mph13%29.74 "Hg10 mi
1:20 PM95 °FPassing clouds.20 mph15%29.77 "HgN/A
12:50 PM93 °FSunny.22 mph16%29.77 "Hg10 mi
12:20 PM93 °FSunny.21 mph16%29.77 "Hg10 mi
11:50 AM91 °FSunny.22 mph18%29.77 "Hg10 mi
11:20 AM91 °FSunny.22 mph20%29.77 "Hg10 mi
10:50 AM90 °FSunny.22 mph22%29.77 "Hg10 mi
10:20 AM88 °FSunny.22 mph22%29.77 "Hg10 mi
9:50 AM86 °FSunny.20 mph24%29.77 "Hg10 mi
9:20 AM84 °FSunny.22 mph23%29.77 "Hg10 mi
8:50 AM84 °FSunny.25 mph22%29.77 "Hg10 mi
8:20 AM84 °FSunny.24 mph22%29.77 "Hg10 mi
7:50 AM82 °FSunny.24 mph21%29.77 "Hg10 mi
7:20 AM82 °FSunny.23 mph23%29.77 "Hg10 mi
6:50 AM81 °FClear.22 mph24%29.77 "Hg10 mi
6:20 AM81 °FClear.18 mph24%29.80 "Hg10 mi
5:50 AM81 °FClear.20 mph24%29.80 "Hg10 mi
5:20 AM82 °FClear.21 mph21%29.80 "Hg10 mi
4:50 AM82 °FClear.21 mph20%29.77 "Hg10 mi
4:20 AM84 °FClear.22 mph19%29.77 "Hg10 mi
3:50 AM84 °FClear.21 mph19%29.80 "Hg10 mi
3:20 AM82 °FClear.12 mph21%29.80 "Hg10 mi
2:50 AM82 °FPassing clouds.17 mph20%29.80 "HgN/A
2:20 AM84 °FClear.22 mph19%29.80 "Hg10 mi
1:50 AM84 °FClear.24 mph20%29.80 "Hg10 mi
1:20 AM84 °FClear.23 mph20%29.80 "Hg10 mi
12:50 AM84 °FClear.22 mph22%29.80 "Hg10 mi
12:20 AM84 °FClear.23 mph23%29.80 "Hg10 mi
11:50 PM
Sat, Jul 23
84 °FClear.21 mph23%29.80 "Hg10 mi
11:20 PM84 °FClear.21 mph23%29.80 "Hg10 mi
10:50 PM84 °FClear.18 mph22%29.80 "Hg10 mi
10:20 PM84 °FClear.15 mph23%29.83 "Hg10 mi
9:50 PM86 °FClear.14 mph24%29.83 "Hg10 mi
9:20 PM86 °FSunny.15 mph25%29.80 "Hg10 mi
Weather by CustomWeather, © 2016

See weather overviewHow to use our weather pages